User: anonymous   Login
Location: Caltech
(34.1382°N, 118.1253°W)
Time: 21:21:46
(UTC-07:00)
Language:

Spot 4 Rocket - Orbit

View from above orbital plane
View from above orbital plane
View from above satellite
View from above satellite

Ground track
Ground track

The orbit data is extracted from the following two-line orbital elements,

1 25261U 98017B   15187.86545891  .00000220  00000-0  95344-4 0  9992
2 25261 098.4562 136.6921 0004375 051.0881 324.2159 14.33319966903117
Epoch (UTC): 06 July 2015 20:46:15
Eccentricity: 0.0004375
inclination: 98.4562°
perigee height: 777 km
apogee height: 784 km
right ascension of ascending node: 136.6921°
argument of perigee: 51.0881°
revolutions per day: 14.33319966
mean anomaly at epoch: 324.2159°
orbit number at epoch: 90311

The dashed part of the orbit path shows where the satellite is in the earth's shadow,  

DLR